User: anonymous   Login
Location: Home
(42.5358°N, 72.7383°W)
Time: 04:36:49
(UTC-04:00)
Language:

FENGYUN 1C DEB - Orbit

View from above orbital plane
View from above orbital plane
View from above satellite
View from above satellite

Ground track
Ground track

The orbit data is extracted from the following two-line orbital elements,

1 30566U 99025ALG 22176.47307755  .00001464  00000-0  94063-3 0  9991
2 30566  99.2808 178.5521 0076268  95.1460  57.8650 14.03397030785743
Epoch (UTC): 25 June 2022 11:21:13
Eccentricity: 0.0076268
inclination: 99.2808°
perigee height: 826 km
apogee height: 937 km
right ascension of ascending node: 178.5521°
argument of perigee: 95.1460°
revolutions per day: 14.03397030
mean anomaly at epoch: 57.8650°
orbit number at epoch: 78574

The dashed part of the orbit path shows where the satellite is in the earth's shadow,  

DLR